Regional Weather Roundup
Issued by NWS

Home | Current Version | Previous Version | Graphics & Text | Print | Product List | Glossary On
Versions: 1 2 3 4 5 6 7 8 9 10 11 12 13 14 15 16 17 18 19 20 21 22 23 24 25 26 27 28 29 30 31 32 33 34 35 36 37 38 39 40 41 42 43 44 45 46 47 48 49 50
000
ASUS43 KDMX 102008
RWRIA

WEATHER ROUNDUP FOR IOWA
NATIONAL WEATHER SERVICE DES MOINES IA
200 PM CST WED FEB 10 2016

NOTE: "FAIR" INDICATES FEW OR NO CLOUDS BELOW 12,000 FEET WITH NO
SIGNIFICANT WEATHER AND/OR OBSTRUCTIONS TO VISIBILITY.

* - THESE STATIONS ARE NOT NWS STATIONS...THUS NOT UNDER NWS
QUALITY CONTROL.  THEY ALSO DO NOT REPORT WEATHER SUCH
AS PRECIPITATION OR FOG.

IAZ001>003-012>014-020>022-031>034-043>046-102100-
   NORTHWEST IOWA

CITY           SKY/WX    TMP DP  RH WIND       PRES   REMARKS
CARROLL *      CLOUDY    18  14  86 E14       29.99S WCI   4
CHEROKEE *     CLOUDY    18  14  86 E10       29.99S WCI   6
DENISON *      CLOUDY    21  18  86 E13       29.94S WCI   9
LE MARS *      CLOUDY    19  18  93 E15G23    29.97R WCI   5
ORANGE CITY *  CLOUDY    18  16  93 E10G18    29.95F WCI   6
SHELDON *      CLOUDY    16  12  86 E15       29.97S WCI   1
SIOUX CITY     CLOUDY    30  21  69 SE12      29.93S WCI  20
SPENCER        CLOUDY    14   8  77 E12       30.01S WCI   0
STORM LAKE *   CLOUDY    14  14 100 E14       29.98R WCI  -1
$$

IAZ055>058-069>071-079>083-090>094-102100-
   SOUTHWEST IOWA

CITY           SKY/WX    TMP DP  RH WIND       PRES   REMARKS
ATLANTIC *     CLOUDY    32  19  59 SE10G16   29.94S WCI  24
AUDUBON *      SUNNY     25  19  80 E10       29.96F WCI  15
CLARINDA *     SUNNY     37  21  52 S10       29.94F WCI  30
COUNCIL BLFS * SUNNY     34  21  60 SE9       29.91S WCI  26
CRESTON *      CLOUDY    27  21  80 SE13      29.96F WCI  16
HARLAN  *      SUNNY     30  23  74 E12       29.96F WCI  21
LAMONI         CLOUDY    26  20  77 SE7       29.97F WCI  18
RED OAK *      SUNNY     37  21  52 S7G14     29.92F WCI  32
SHENANDOAH *   SUNNY     39  21  48 VRB3      29.92S
$$

IAZ047>049-059>061-072>074-084-102100-
   CENTRAL IOWA

CITY           SKY/WX    TMP DP  RH WIND       PRES   REMARKS
AMES           CLOUDY    15  10  80 E10       30.05S WCI   2
ANKENY *       CLOUDY    18  12  79 E10       30.04F WCI   6
BOONE *        CLOUDY    16  10  79 E13       30.01S WCI   2
CHARITON *     CLOUDY    19  16  86 E9        30.01F WCI   9
DES MOINES     FLURRIES  19  12  74 E8        30.03F WCI   9
GRINNELL*      LGT SNOW  16  10  79 E8        30.05S WCI   5
KNOXVILLE *    CLOUDY    18  10  73 E9        30.03F WCI   6
MARSHALLTOWN   FLURRIES  13   8  81 NE6       30.05F WCI   4
NEWTON *       FLURRIES  16  12  86 E8        30.04F WCI   5
PELLA *        LGT SNOW  19  12  73 E5        30.07S WCI  13
$$

IAZ004>006-015-016-023>025-035-036-102100-
   NORTH CENTRAL IOWA

CITY           SKY/WX    TMP DP  RH WIND       PRES   REMARKS
ALGONA *       CLOUDY    14   9  79 E8        30.02F WCI   3
CLARION *      CLOUDY    12   7  79 E10       30.04S WCI  -1
ESTHERVILLE    CLOUDY    10   6  84 E12       30.02S WCI  -5
FORT DODGE *   CLOUDY    14   7  73 E14       30.04R WCI  -1
MASON CITY     CLOUDY    12   3  67 NE6       30.05F WCI   3
FOREST CITY *  FLURRIES  12   5  73 NE6       30.04S WCI   3
WEBSTER CITY * CLOUDY    14   9  79 E10       30.02S WCI   1
IOWA FALLS *   FLURRIES  14   7  73 E8        30.05S WCI   3
$$

IAZ007>011-017>019-026>030-037>042-050>054-066-102100-
   NORTHEAST IOWA

CITY           SKY/WX    TMP DP  RH WIND       PRES   REMARKS
CEDAR RAPIDS   CLOUDY    15   4  61 VRB6      30.05F WCI   6
CHARLES CITY * CLOUDY    10  -2  56 CALM      30.06F
CLINTON *      CLOUDY    18   5  57 NW9       30.06F WCI   7
DECORAH *      SUNNY     10  -4  52 N8        30.03F WCI  -1
DUBUQUE        CLOUDY    14   0  53 W7        30.03S WCI   4
MONTICELLO *   CLOUDY    14   1  57 NW7       30.06S WCI   4
OELWEIN *      PTSUNNY   12   0  57 N6        30.05F WCI   3
WATERLOO       PTSUNNY   14   1  56 N6        30.06F WCI   5
$$

IAZ064-065-067-068-078-102100-
   EAST CENTRAL IOWA

CITY           SKY/WX    TMP DP  RH WIND       PRES   REMARKS
DAVENPORT      CLOUDY    18   3  52 W10       30.06F WCI   6
IOWA CITY      CLOUDY    18   3  52 N8        30.09F WCI   8
MT. PLEASANT * LGT SNOW  21  14  73 CALM      30.08S
MUSCATINE *    CLOUDY    19   3  49 NW6       30.09F WCI  11
QUAD CITIES    PTSUNNY   18   2  49 NW7       30.07F WCI   9
$$

IAZ062-063-075>077-085>089-095>099-102100-
   SOUTHEAST IOWA

CITY           SKY/WX    TMP DP  RH WIND       PRES   REMARKS
BURLINGTON     LGT SNOW  17  12  80 NW3       30.08S
FAIRFIELD *    LGT SNOW  18  10  73 NE3       30.06F
FORT MADISON * LGT SNOW  18  12  79 CALM      30.08S VSB 1
KEOKUK *       FLURRIES  18  14  86 CALM      30.08S
OSKALOOSA *    FLURRIES  18  14  86 E5        30.06F WCI  11
CENTERVILLE *  CLOUDY    19  18  93 CALM      30.05R
OTTUMWA        CLOUDY    18  13  80 E5        30.06F WCI  11
WASHINGTON *   LGT SNOW  16  10  79 N5        30.09S WCI   9
$$

ABBREVIATIONS USED IN REMARKS
   TC - TEMPERATURES IN CELSIUS
  WCI - WIND CHILL INDEX
   HX - HEAT INDEX
  VSB - VISIBILITY
$$




USA.gov is the U.S. government's official web portal to all federal, state and local government web resources and services.